Location: Palomares
(40.3904°N, 5.7415°W)
Time: 07:59:40
(UTC+00:00)

Daily predictions for brighter satellites

Satellite Brightness Start Highest point End
(mag) Time Altitude Azimuth Time Altitude Azimuth Time Altitude Azimuth
BREEZE-M DEB (TANK) 4.2 19:58:07 10° WSW 20:09:28 83° NW 20:13:29 10° ENE
MOS 1 Rocket 3.2 20:05:12 10° NNE 20:09:36 57° E 20:13:50 10° S
STARLINK-1205 4.0 20:06:26 10° SSW 20:10:21 43° SE 20:14:17 10° ENE
STARLINK-1171 4.3 20:08:05 10° NW 20:12:06 46° NNE 20:16:05 10° ESE
Okean 1 4.3 20:08:47 10° SSE 20:12:18 29° E 20:15:49 10° NNE
NOSS 2-3 (D) 4.3 20:08:48 10° S 20:12:27 30° ESE 20:16:29 10° NE
Cosmos 2278 Rocket 3.6 20:10:46 10° SE 20:14:28 18° E 20:18:10 10° ENE
STARLINK-1218 3.8 20:11:19 10° SSW 20:15:17 47° SE 20:19:16 10° ENE
STARLINK-1155 4.2 20:13:02 10° NW 20:17:05 50° NE 20:21:07 10° ESE
STARLINK-1157 3.1 20:14:25 10° NW 20:17:46 79° NE 20:21:04 10° SE
Cosmos 1666 3.0 20:14:23 10° NNW 20:18:13 73° W 20:22:03 10° S
Cosmos 1908 Rocket 4.2 20:14:28 10° N 20:18:41 40° ENE 20:22:53 10° SSE
STARLINK-1254 3.7 20:16:14 10° SSW 20:20:15 53° SE 20:24:17 10° ENE
TELKOM 3 4.2 20:18:36 10° NW 20:20:28 27° NNE 20:22:26 10° E
Cosmos 1844 Rocket 2.9 20:16:14 10° SSW 20:21:54 78° WNW 20:27:36 10° NNE
STARLINK-1166 4.1 20:17:59 10° NW 20:22:04 54° NE 20:26:08 10° ESE
USA 229 DEB 3.6 20:16:17 10° SSW 20:22:45 84° ESE 20:29:34 10° NE
USA 229 3.6 20:16:24 10° SSW 20:22:52 83° ESE 20:29:40 10° NE
STARLINK-1231 3.6 20:21:11 10° SW 20:25:14 58° SE 20:29:19 10° ENE
STARLINK-1165 3.9 20:22:58 10° NW 20:27:04 59° NE 20:31:02 11° ESE
SPOT 3 Rocket 3.6 20:22:09 10° SSE 20:27:15 68° ENE 20:32:22 10° N
Cosmos 1536 3.6 20:25:27 10° NNW 20:29:26 55° W 20:33:24 10° S
Resurs 1-3 3.7 20:25:16 10° SSE 20:29:35 61° ENE 20:33:55 10° N
DNEPR-1 R/B 4.3 20:23:56 10° NW 20:30:07 73° WSW 20:35:04 10° SSE
STARLINK-1232 3.6 20:26:06 10° SW 20:30:11 65° SE 20:34:18 10° NE
NOSS 3-1 (C) 3.4 20:25:01 10° SW 20:30:21 80° NW 20:36:34 10° NNE
NOSS 3-1 (A) 3.2 20:26:45 10° SSW 20:32:01 65° ESE 20:38:03 10° NE
STARLINK-1169 3.8 20:27:55 10° NW 20:32:03 65° NE 20:35:49 12° ESE
Cosmos 2346 Rocket 4.4 20:28:48 10° S 20:34:49 75° E 20:40:58 10° N
STARLINK-1208 3.5 20:31:02 10° SW 20:35:09 71° SE 20:39:17 10° NE
Tsikada Rocket 4.1 20:29:25 10° SSE 20:35:28 57° E 20:41:29 10° NNE
STARLINK-1178 3.7 20:32:53 10° NW 20:37:02 71° NE 20:40:36 14° ESE
Cosmos 2242 Rocket 3.6 20:34:20 10° S 20:38:44 87° W 20:43:09 10° N
Cosmos 1624 Rocket 4.3 20:34:03 10° S 20:39:06 47° ESE 20:44:11 10° NNE
H-2A R/B 3.6 20:34:41 10° SSW 20:39:08 33° W 20:43:44 10° NNW
STARLINK-1271 3.5 20:36:00 10° SW 20:40:08 79° SE 20:44:17 10° NE
SJ-6B 3.9 20:37:07 10° S 20:40:41 42° W 20:44:15 10° NNW
Meteor 1-4 Rocket 3.5 20:39:03 13° SSE 20:41:31 27° E 20:44:30 10° NE
STARLINK-1120 3.7 20:37:51 10° NW 20:42:00 77° NE 20:45:22 15° SE
NOSS 2-3 (C) 3.5 20:38:53 10° SSW 20:43:01 66° ESE 20:47:44 10° NE
ERBS 3.4 20:41:45 10° S 20:44:24 23° SE 20:47:05 10° ENE
STARLINK-1154 3.6 20:41:00 10° SW 20:45:08 86° SE 20:49:17 10° NE
STARLINK-1131 3.6 20:42:49 10° NW 20:46:59 84° NE 20:50:09 17° SE
Cosmos 1140 Rocket 4.2 20:42:21 10° N 20:47:12 39° ENE 20:51:01 15° SE
Cosmos 614 Rocket 4.0 20:42:53 10° NNW 20:47:57 67° ENE 20:52:18 14° SSE
Cosmos 1844 4.4 20:43:09 10° SW 20:48:42 60° WNW 20:54:22 10° NNE
STARLINK-1197 3.6 20:45:57 10° SW 20:50:05 86° NW 20:54:15 10° NE
COSMOS 2406 4.0 20:45:25 10° N 20:50:48 39° ENE 20:55:00 16° ESE
CZ-2C R/B 4.3 20:46:58 10° N 20:51:22 59° WNW 20:55:47 10° SSW
Meteor 2-4 Rocket 4.3 20:47:14 12° SSE 20:51:45 35° E 20:56:34 10° NNE
STARLINK-1190 3.6 20:47:46 10° NW 20:51:56 88° SW 20:54:54 18° SE
Cosmos 1371 Rocket 3.9 20:48:02 10° S 20:53:16 73° ESE 20:58:30 10° NNE
Hubble Space Telescope 2.6 20:52:00 10° SW 20:54:30 16° S 20:55:31 14° SSE
STARLINK-1198 3.7 20:50:55 10° SW 20:55:02 79° NW 20:59:12 10° NE
STARLINK-1129 3.6 20:52:47 10° NW 20:56:56 81° SW 20:59:43 20° SE
Okean 3 4.4 20:55:07 18° SE 20:57:35 30° E 21:01:22 10° NNE
STARLINK-1199 3.9 20:55:55 10° WSW 21:00:02 72° NW 21:04:12 10° NE
MetOp-B 4.3 20:56:47 16° SE 21:01:00 57° ENE 21:06:14 10° N
BREEZE M DEB (TANK) 4.0 20:59:16 10° W 21:01:15 17° SW 21:02:24 13° SSW
STARLINK-1134 3.6 20:57:47 10° NW 21:01:56 73° SW 21:04:31 22° SE
ERS-1 Rocket 4.3 21:00:21 15° ESE 21:03:10 25° ENE 21:07:11 10° NNE
STARLINK-1087 1.5 21:02:49 10° NW 21:04:47 86° SW 21:05:01 65° SE
STARLINK-1210 4.0 21:00:56 10° WSW 21:05:03 66° NW 21:09:11 10° NE
BREEZE-M DEB (TANK) 2.7 21:03:29 10° WNW 21:05:43 48° SW 21:06:39 29° SSE
STARLINK-1135 3.7 21:02:45 10° NW 21:06:53 66° SW 21:09:17 23° SE
Cosmos 1544 3.1 21:03:30 10° N 21:07:06 58° E 21:09:03 24° SSE
STARLINK-1200 4.4 21:04:00 10° S 21:07:32 28° SE 21:11:06 10° ENE
Cosmos 44 Rocket 4.0 21:04:51 10° NW 21:09:33 48° WSW 21:13:26 15° S
SAR-Lupe-2 3.8 21:06:05 10° NNE 21:09:34 46° E 21:11:27 23° SSE
Okean 1-7 3.3 21:05:33 10° SSW 21:09:49 66° W 21:14:04 10° N
STARLINK-1219 4.2 21:05:55 10° WSW 21:10:00 61° NW 21:14:07 10° NE
Spot 2 Rocket 3.7 21:07:55 20° SE 21:11:17 56° ENE 21:16:12 10° N
ISS -0.9 21:09:23 10° NNW 21:11:17 14° N 21:13:11 10° NE
STARLINK-1141 3.8 21:07:46 10° WNW 21:11:51 60° SW 21:14:04 25° SSE
STARLINK-1192 4.3 21:08:51 10° SSW 21:12:30 31° SE 21:16:09 10° ENE
STARLINK-1211 4.4 21:10:55 10° WSW 21:14:59 56° NW 21:19:04 10° NE
STARLINK-1140 4.0 21:12:44 10° WNW 21:16:48 54° SW 21:18:50 26° SSE
Cosmos 1743 3.8 21:13:12 10° NNW 21:16:50 42° W 21:20:17 11° SSW
USA 245 3.3 21:15:36 28° SE 21:17:12 51° ENE 21:20:16 10° N
Cosmos 389 Rocket 4.4 21:14:10 10° SW 21:17:13 29° WNW 21:20:20 10° NNW
STARLINK-1244 4.2 21:13:41 10° SSW 21:17:25 34° SE 21:21:11 10° ENE
Cosmos 2221 Rocket 3.8 21:16:02 22° SSE 21:18:39 51° E 21:23:03 10° NNE
Cosmos 676 Rocket 4.4 21:14:07 10° N 21:19:13 50° ENE 21:22:02 25° SE
STARLINK-1156 4.1 21:17:46 10° WNW 21:21:47 49° SW 21:23:38 27° SSE
Cosmos 2056 Rocket 3.6 21:16:44 10° SSW 21:21:50 73° WNW 21:26:57 10° NNE
Aureole 1 Rocket 3.3 21:17:57 10° NNW 21:22:15 87° ENE 21:25:39 23° SSE
STARLINK-1138 4.1 21:18:33 10° SSW 21:22:22 37° SE 21:26:12 10° ENE
Terra 3.3 21:21:43 18° E 21:23:35 22° ENE 21:27:14 10° NNE
Cosmos 1023 Rocket 4.4 21:19:38 10° NNW 21:24:52 87° ENE 21:27:59 25° SSE
Resurs 01 Rocket 2.5 21:22:43 13° S 21:26:30 46° W 21:30:49 10° NNW
STARLINK-1148 4.3 21:22:46 10° WNW 21:26:43 44° SW 21:28:24 28° S
Cosmos 2082 Rocket 3.4 21:22:12 10° N 21:27:13 30° ENE 21:30:10 20° ESE
STARLINK-1143 3.9 21:23:26 10° SSW 21:27:19 41° SE 21:31:14 10° ENE
STARLINK-1203 3.9 21:23:47 10° SSW 21:27:45 43° SE 21:31:45 10° ENE
Lacrosse 5 3.5 21:24:31 10° NNW 21:28:48 27° NNE 21:32:31 12° E
STARLINK-1158 4.4 21:27:48 10° WNW 21:31:41 40° SW 21:33:12 28° S
STARLINK-1241 3.8 21:28:20 10° SSW 21:32:17 46° SE 21:36:15 10° ENE
Sich 1 Rocket 3.7 21:29:17 10° N 21:33:54 84° W 21:36:26 26° S
Cosmos 1833 Rocket 3.0 21:28:26 10° NNW 21:33:56 53° ENE 21:36:38 29° SE
STARLINK-1088 4.2 21:30:00 10° NW 21:34:02 48° NNE 21:35:54 27° E
ATLAS 3B CENTAUR R/B 4.0 21:28:58 10° SW 21:36:50 22° S 21:37:43 21° SSE
STARLINK-1239 3.7 21:33:15 10° SSW 21:37:15 51° SE 21:41:17 10° ENE
Cosmos 1782 Rocket 4.4 21:33:23 10° NNW 21:37:42 47° W 21:40:52 17° SSW
STARLINK-1115 4.1 21:34:57 10° NW 21:39:01 52° NE 21:40:40 31° E
Cosmos 371 Rocket 3.3 21:38:45 29° S 21:40:59 56° ESE 21:45:46 10° NNE
CREW DRAGON DEMO-1 DEB 3.0 21:38:24 10° WNW 21:41:26 54° SW 21:41:33 54° SSW
STARLINK-1240 3.6 21:38:10 10° SW 21:42:13 56° SE 21:46:17 10° ENE
Cosmos 1975 3.8 21:38:32 10° NNW 21:42:24 44° W 21:44:48 20° SSW
Meteor 2-9 Rocket 4.5 21:37:19 10° NNW 21:42:38 60° W 21:46:12 20° S
STARLINK-1076 4.0 21:39:55 10° NW 21:44:01 57° NE 21:45:28 35° E
Cosmos 1943 Rocket 4.2 21:48:17 11° E 21:48:17 11° E 21:49:00 10° ENE
STARLINK-1216 3.5 21:43:05 10° SW 21:47:10 62° SE 21:51:16 10° ENE
STARLINK-1092 3.9 21:44:52 10° NW 21:48:58 62° NE 21:50:14 40° E
Okean 2 Rocket 3.0 21:44:54 10° N 21:49:21 87° E 21:50:52 41° S
Cosmos 2279 Rocket 3.9 21:43:31 10° N 21:49:47 76° E 21:52:55 31° SSE
STARLINK-1237 3.4 21:48:02 10° SW 21:52:08 69° SE 21:56:16 10° NE
Cosmos 1452 Rocket 3.4 21:49:35 25° S 21:52:40 74° ESE 21:57:57 10° NNE
STARLINK-1080 3.7 21:49:52 10° NW 21:54:01 69° NE 21:55:03 47° ESE
STARLINK-1202 3.4 21:53:00 10° SW 21:57:07 76° SE 22:01:16 10° NE
Cosmos 2278 Rocket 2.7 21:52:23 10° SW 21:57:58 61° WNW 22:03:37 10° NNE
Cosmos 1420 Rocket 4.3 21:53:15 10° SSW 21:58:24 68° WNW 22:03:35 10° NNE
STARLINK-1090 3.6 21:54:48 10° NW 21:58:58 75° NE 21:59:48 54° ESE
SPOT 5 3.0 22:00:51 42° SSE 22:02:34 76° ENE 22:07:50 10° N
Cosmos 2151 Rocket 3.5 21:58:05 10° N 22:02:38 84° E 22:03:45 51° SSE
Cosmos 1437 Rocket 2.5 22:02:48 70° SE 22:02:59 72° E 22:06:46 10° NNE
STARLINK-1089 3.5 21:59:48 10° NW 22:03:57 82° NE 22:04:35 62° ESE
Okean 1 Rocket 3.8 22:00:09 10° N 22:04:19 37° ENE 22:04:43 36° E
SL-4 R/B 2.5 22:03:25 10° NNW 22:05:51 34° NNE 22:05:51 34° NNE
STARLINK-1246 3.5 22:02:54 10° SW 22:07:03 89° NW 22:11:12 10° NE
STARLINK-1107 3.4 22:04:46 10° NW 22:08:55 89° NNE 22:09:22 70° SE
STARLINK-1224 3.6 22:07:54 10° SW 22:12:03 82° NW 22:16:12 10° NE
STARLINK-1066 3.4 22:09:46 10° NW 22:13:55 83° SW 22:14:11 77° SSE
SPOT 1/Viking Rocket 4.1 22:11:56 31° SSW 22:14:07 53° W 22:19:10 10° NNW
STARLINK-1225 3.7 22:12:52 10° SW 22:17:00 75° NW 22:21:10 10° NE
Cosmos 1092 Rocket 4.4 22:17:02 38° ESE 22:18:14 42° E 22:23:58 10° NNE
STARLINK-1081 3.5 22:14:45 10° NW 22:18:53 76° SW 22:18:57 76° SSW
ERBS 4.3 22:17:39 10° WSW 22:20:35 29° NW 22:23:32 10° NNE
Aureole 2 Rocket 4.3 22:23:48 21° NE 22:23:48 21° NE 22:24:59 10° NNE
STARLINK-1230 3.8 22:17:53 10° WSW 22:22:01 68° NW 22:26:09 10° NE
BREEZE-M DEB (TANK) 4.4 22:00:17 10° WSW 22:22:31 80° NNW 22:27:20 10° NE
CARTOSAT-1 3.9 22:22:01 49° SW 22:22:48 57° W 22:27:04 10° NNW
STARLINK-1070 3.6 22:19:43 10° NW 22:23:43 68° WSW 22:23:43 68° WSW
BREEZE-M DEB (TANK) 3.9 22:24:53 44° ESE 22:24:53 44° ESE 22:32:06 10° ENE
EXPRESS MD2 3.6 22:24:50 26° WSW 22:26:48 80° NNW 22:33:24 10° ENE
STARLINK-1243 4.0 22:22:53 10° WSW 22:26:59 63° NW 22:31:07 10° NE
Crew Dragon 3.7 22:25:36 10° NNW 22:25:55 12° N 22:25:55 12° N
Cosmos 304 Rocket 3.6 22:26:45 67° SSE 22:27:14 75° ESE 22:32:02 10° NNE
STARLINK-1069 3.8 22:24:41 10° WNW 22:28:29 60° WSW 22:28:29 60° WSW
Cosmos 1741 Rocket 3.9 22:23:35 10° NNW 22:28:50 77° ENE 22:29:43 60° SE
Cosmos 1766 4.5 22:25:58 10° NNE 22:29:02 32° ENE 22:29:02 32° ENE
STARLINK-1236 4.2 22:27:54 10° WSW 22:31:59 57° NW 22:36:05 10° NE
STARLINK-1085 4.0 22:29:44 10° WNW 22:33:19 52° WSW 22:33:19 52° WSW
Cosmos 332 Rocket 4.2 22:32:04 32° SW 22:34:10 59° WNW 22:39:02 10° NNE
Meteor 1-23 Rocket 4.3 22:34:31 42° SSW 22:36:31 78° W 22:42:13 10° N
STARLINK-1086 4.3 22:34:43 10° WNW 22:38:04 45° WSW 22:38:04 45° WSW
ERS-1 Rocket 3.9 22:40:21 32° SW 22:41:43 38° W 22:46:25 10° NNW
Cosmos 1850 Rocket 4.0 22:36:53 10° NNW 22:42:15 78° WSW 22:43:03 63° S
BREEZE M DEB (TANK) 4.3 22:39:53 10° W 22:44:03 30° NNW 22:45:08 22° NNE
SeaSat 1 2.3 22:39:25 10° NNE 22:44:22 79° ESE 22:44:46 73° SSE
STARLINK-1117 4.4 22:42:01 10° NW 22:46:00 43° NNE 22:46:16 43° NE
Cosmos 1110 Rocket 3.8 22:46:21 69° SSW 22:47:01 88° ESE 22:52:13 10° NNE
Cosmos 1461 3.0 22:47:43 70° N 22:47:43 70° N 22:51:38 10° NNE
ISS -2.1 22:45:35 10° NW 22:48:01 34° N 22:48:01 34° N
STARLINK-1078 4.3 22:46:58 10° NW 22:51:00 47° NNE 22:51:03 47° NE
ATLAS 2AS CENTAUR R/B 4.2 22:51:57 24° ESE 22:51:57 24° ESE 22:57:36 10° ENE
Meteor 1-22 Rocket 4.3 22:49:13 10° N 22:55:09 65° ENE 22:55:56 58° ESE
Cosmos 2297 3.8 22:53:22 43° SW 22:55:13 73° WNW 23:00:57 10° NNE
STARLINK-1108 4.3 22:51:56 10° NW 22:55:50 51° NNE 22:55:50 51° NNE
STARLINK-1071 4.2 22:56:53 10° NW 23:00:36 53° NNE 23:00:36 53° NNE
Terra 2.7 23:00:36 37° WSW 23:01:04 38° W 23:05:31 10° NNW
STARLINK-1110 4.3 23:01:01 10° NW 23:04:35 54° N 23:04:35 54° N
Cosmos 1331 Rocket 4.2 23:08:59 57° WSW 23:09:46 65° WNW 23:14:55 10° NNE
Spot 4 4.0 23:10:10 63° ENE 23:10:10 63° ENE 23:14:53 10° N
Cosmos 2026 Rocket 3.9 23:09:19 65° SSE 23:10:20 82° E 23:16:40 10° N
STARLINK-1124 4.3 23:06:49 10° NW 23:10:09 52° NNW 23:10:09 52° NNW
Cosmos 2082 Rocket 2.9 23:06:06 10° NW 23:11:23 40° WSW 23:12:01 38° WSW
Lacrosse 5 2.0 23:07:07 10° NW 23:11:42 63° W 23:11:42 63° W
EO 1 Del DPAF 4.3 23:11:05 10° N 23:13:46 44° N 23:13:46 44° N
Cosmos 1302 Rocket 4.0 23:15:08 71° E 23:15:08 71° E 23:20:10 10° NNE
STARLINK-1122 4.4 23:11:48 10° NW 23:14:57 49° NNW 23:14:57 49° NNW
Cosmos 1975 Rocket 3.4 23:17:49 64° NNW 23:17:49 64° NNW 23:21:45 10° N
Cosmos 1833 Rocket 4.4 23:13:21 10° NW 23:17:24 21° W 23:18:20 20° WSW
Cosmos 1805 4.4 23:14:53 10° NNW 23:17:46 39° NW 23:17:46 39° NW
Cosmos 2369 Rocket 2.3 23:23:31 59° E 23:23:31 59° E 23:28:43 10° NNE
Cosmos 1842 4.4 23:29:49 41° NNW 23:29:49 41° NNW 23:32:35 10° N
Cosmos 1943 Rocket 2.0 23:29:46 81° WSW 23:29:59 84° WNW 23:35:36 10° NNE
Thor Agena Rocket 4.1 23:31:03 10° N 23:36:10 51° WNW 23:36:58 47° W
Meteor 1-21 4.1 23:35:58 82° SW 23:36:12 86° W 23:41:51 10° N
Cosmos 2266 Rocket 4.5 23:40:00 43° E 23:40:12 43° E 23:45:53 10° NNE
Helios 1A 4.4 23:43:07 32° NE 23:43:07 32° NE 23:46:11 10° N
Aureole 3 Rocket 4.1 23:40:57 10° N 23:46:42 86° W 23:47:49 66° S
USA 215 3.2 23:48:13 58° SE 23:49:41 87° NE 23:56:15 10° NW
Cosmos 1726 4.3 23:46:28 10° NNE 23:48:18 22° NE 23:48:18 22° NE
APEX 4.4 23:51:51 72° SE 23:52:06 73° ESE 23:58:01 10° NNE
Cosmos 1455 Rocket 4.2 23:49:49 10° NNW 23:52:59 38° NW 23:52:59 38° NW
